When you browse on this site, cookies collect data to enhance your experience and personalize the content and advertising you see.
Visit our Privacy Policy to learn more. By continuing to use the site, you agree to this use of cookies and data.
  • In Hungary
  • List of Countries
  • For 7 days
  • Water Temperature
  • Satellite Maps
  • Weather Map
  • News
  • Weather Widgets
  • user-avatar
    Login

    Hourly Weather Mayrhofen

    Today, 21 January, Monday

    Time Temperature Precipitation Wind Pressure Humidity
    00:00 -12°C° 0 mm 1 mps 610 mmHg 85%
    01:00 -12°C° 0 mm 1 mps 610 mmHg 85%
    02:00 -12°C° 0 mm 1 mps 610 mmHg 86%
    03:00 -13°C° 0 mm 1 mps 610 mmHg 86%
    04:00 -13°C° 0 mm 1 mps 610 mmHg 87%
    05:00 -13°C° 0 mm 1 mps 610 mmHg 87%
    06:00 -13°C° 0 mm 1 mps 610 mmHg 88%
    07:00 -13°C° 0 mm 1 mps 610 mmHg 88%
    08:00 -11°C° 0 mm 1 mps 611 mmHg 87%
    09:00 -10°C° 0 mm 1 mps 612 mmHg 87%
    10:00 -8°C° 0 mm 1 mps 613 mmHg 87%
    11:00 -7°C° 0 mm 1 mps 613 mmHg 85%
    12:00 -6°C° 0 mm 1 mps 613 mmHg 84%
    13:00 -4°C° 0 mm 1 mps 613 mmHg 83%
    14:00 -4°C° 0.1 mm 1 mps 613 mmHg 86%
    15:00 -6°C° 0.1 mm 1 mps 613 mmHg 88%
    16:00 -6°C° 0.1 mm 1 mps 612 mmHg 91%
    17:00 -7°C° 0 mm 1 mps 612 mmHg 92%
    18:00 -9°C° 0 mm 1 mps 611 mmHg 94%
    19:00 -10°C° 0 mm 1 mps 611 mmHg 95%
    20:00 -11°C° 0 mm 1 mps 611 mmHg 94%
    21:00 -12°C° 0 mm 1 mps 610 mmHg 93%
    22:00 -13°C° 0 mm 1 mps 610 mmHg 92%
    23:00 -13°C° 0 mm 1 mps 610 mmHg 90%

    Tomorrow, 22 January, Tuesday

    Time Temperature Precipitation Wind Pressure Humidity
    00:00 -14°C° 0 mm 1 mps 609 mmHg 89%
    01:00 -14°C° 0 mm 1 mps 609 mmHg 88%
    02:00 -14°C° 0 mm 1 mps 609 mmHg 87%
    03:00 -14°C° 0 mm 1 mps 608 mmHg 86%
    04:00 -14°C° 0 mm 1 mps 608 mmHg 85%
    05:00 -14°C° 0 mm 1 mps 607 mmHg 83%
    06:00 -14°C° 0 mm 1 mps 607 mmHg 81%
    07:00 -14°C° 0 mm 1 mps 606 mmHg 79%
    08:00 -12°C° 0 mm 1 mps 607 mmHg 78%
    09:00 -11°C° 0 mm 1 mps 607 mmHg 77%
    10:00 -9°C° 0 mm 1 mps 608 mmHg 76%
    11:00 -7°C° 0 mm 1 mps 607 mmHg 73%
    12:00 -6°C° 0 mm 1 mps 607 mmHg 71%
    13:00 -3°C° 0 mm 1 mps 607 mmHg 68%
    14:00 -4°C° 0 mm 1 mps 606 mmHg 71%
    15:00 -6°C° 0 mm 1 mps 605 mmHg 75%
    16:00 -7°C° 0 mm 1 mps 604 mmHg 78%
    17:00 -9°C° 0 mm 1 mps 603 mmHg 77%
    18:00 -13°C° 0 mm 2 mps 602 mmHg 76%
    19:00 -15°C° 0 mm 2 mps 601 mmHg 75%
    20:00 -15°C° 0 mm 2 mps 601 mmHg 73%
    21:00 -16°C° 0 mm 2 mps 600 mmHg 72%
    22:00 -17°C° 0 mm 3 mps 600 mmHg 70%
    23:00 -16°C° 0 mm 2 mps 599 mmHg 71%

    Day after tomorrow, 23 January, Wednesday

    Time Temperature Precipitation Wind Pressure Humidity
    00:00 -17°C° 0 mm 2 mps 599 mmHg 71%
    01:00 -17°C° 0 mm 2 mps 599 mmHg 71%
    02:00 -17°C° 0 mm 2 mps 598 mmHg 70%
    03:00 -17°C° 0 mm 2 mps 598 mmHg 68%
    04:00 -17°C° 0 mm 2 mps 597 mmHg 67%
    05:00 -16°C° 0 mm 1 mps 597 mmHg 67%
    06:00 -16°C° 0 mm 1 mps 597 mmHg 66%
    07:00 -16°C° 0 mm 1 mps 597 mmHg 66%
    08:00 -14°C° 0 mm 1 mps 597 mmHg 68%
    09:00 -13°C° 0 mm 1 mps 598 mmHg 71%
    10:00 -11°C° 0 mm 1 mps 599 mmHg 73%
    11:00 -9°C° 0 mm 1 mps 599 mmHg 74%
    12:00 -8°C° 0 mm 1 mps 599 mmHg 75%
    13:00 -7°C° 0 mm 1 mps 600 mmHg 76%
    14:00 -7°C° 0 mm 1 mps 600 mmHg 80%
    15:00 -8°C° 0 mm 1 mps 600 mmHg 85%
    16:00 -8°C° 0 mm 1 mps 599 mmHg 90%
    17:00 -10°C° 0 mm 1 mps 599 mmHg 91%
    18:00 -11°C° 0 mm 1 mps 599 mmHg 93%
    19:00 -13°C° 0 mm 1 mps 599 mmHg 95%
    20:00 -13°C° 0 mm 1 mps 600 mmHg 94%
    21:00 -14°C° 0 mm 1 mps 600 mmHg 93%
    22:00 -14°C° 0 mm 1 mps 600 mmHg 92%
    23:00 -14°C° 0 mm 1 mps 601 mmHg 91%

    24 January, Thursday

    Time Temperature Precipitation Wind Pressure Humidity
    00:00 -14°C° 0 mm 1 mps 601 mmHg 90%
    01:00 -14°C° 0 mm 1 mps 601 mmHg 89%
    02:00 -14°C° 0 mm 1 mps 601 mmHg 89%
    03:00 -14°C° 0 mm 1 mps 602 mmHg 89%
    04:00 -14°C° 0 mm 1 mps 602 mmHg 88%
    05:00 -14°C° 0 mm 1 mps 602 mmHg 89%
    06:00 -14°C° 0 mm 1 mps 603 mmHg 90%
    07:00 -17°C° 0 mm 2 mps 603 mmHg 91%
    08:00 -15°C° 0 mm 2 mps 604 mmHg 90%
    09:00 -13°C° 0 mm 2 mps 605 mmHg 90%
    10:00 -12°C° 0 mm 2 mps 606 mmHg 89%
    11:00 -10°C° 0 mm 2 mps 607 mmHg 89%
    12:00 -9°C° 0 mm 2 mps 607 mmHg 88%
    13:00 -8°C° 0 mm 2 mps 607 mmHg 88%
    14:00 -8°C° 0 mm 2 mps 607 mmHg 89%
    15:00 -9°C° 0 mm 2 mps 607 mmHg 90%
    16:00 -9°C° 0 mm 2 mps 607 mmHg 91%
    17:00 -10°C° 0 mm 2 mps 607 mmHg 92%
    18:00 -12°C° 0 mm 2 mps 607 mmHg 93%
    19:00 -14°C° 0 mm 2 mps 607 mmHg 94%
    20:00 -14°C° 0 mm 2 mps 607 mmHg 94%
    21:00 -14°C° 0 mm 2 mps 608 mmHg 93%
    22:00 -15°C° 0 mm 2 mps 608 mmHg 93%
    23:00 -15°C° 0 mm 2 mps 608 mmHg 93%

    25 January, Friday

    Time Temperature Precipitation Wind Pressure Humidity
    00:00 -16°C° 0 mm 2 mps 608 mmHg 93%
    01:00 -16°C° 0 mm 2 mps 607 mmHg 93%
    02:00 -17°C° 0 mm 2 mps 607 mmHg 92%
    03:00 -17°C° 0 mm 2 mps 607 mmHg 91%
    04:00 -18°C° 0 mm 2 mps 606 mmHg 90%
    05:00 -18°C° 0 mm 2 mps 606 mmHg 89%
    06:00 -18°C° 0 mm 2 mps 606 mmHg 87%
    07:00 -19°C° 0 mm 2 mps 607 mmHg 85%
    08:00 -17°C° 0 mm 2 mps 607 mmHg 83%
    09:00 -15°C° 0 mm 2 mps 608 mmHg 82%
    10:00 -13°C° 0 mm 2 mps 609 mmHg 81%
    11:00 -12°C° 0 mm 2 mps 610 mmHg 80%
    12:00 -10°C° 0 mm 2 mps 610 mmHg 79%
    13:00 -9°C° 0 mm 3 mps 610 mmHg 78%
    14:00 -10°C° 0 mm 3 mps 610 mmHg 82%
    15:00 -9°C° 0 mm 2 mps 609 mmHg 85%
    16:00 -10°C° 0 mm 2 mps 609 mmHg 88%
    17:00 -13°C° 0 mm 2 mps 609 mmHg 88%
    18:00 -14°C° 0 mm 2 mps 609 mmHg 89%
    19:00 -16°C° 0 mm 2 mps 608 mmHg 89%
    20:00 -16°C° 0 mm 2 mps 609 mmHg 87%
    21:00 -16°C° 0 mm 2 mps 609 mmHg 85%
    22:00 -16°C° 0 mm 2 mps 609 mmHg 82%
    23:00 -16°C° 0 mm 2 mps 609 mmHg 83%

    26 January, Saturday

    Time Temperature Precipitation Wind Pressure Humidity
    00:00 -15°C° 0 mm 2 mps 609 mmHg 84%
    01:00 -15°C° 0 mm 2 mps 609 mmHg 84%
    02:00 -15°C° 0 mm 2 mps 609 mmHg 85%
    03:00 -14°C° 0 mm 2 mps 609 mmHg 86%
    04:00 -14°C° 0 mm 2 mps 609 mmHg 87%
    05:00 -13°C° 0 mm 2 mps 609 mmHg 87%
    06:00 -13°C° 0 mm 2 mps 609 mmHg 88%
    07:00 -12°C° 0 mm 2 mps 610 mmHg 88%
    08:00 -9°C° 0 mm 2 mps 610 mmHg 89%
    09:00 -8°C° 0 mm 2 mps 611 mmHg 89%
    10:00 -6°C° 0 mm 2 mps 611 mmHg 89%
    11:00 -3°C° 0 mm 1 mps 611 mmHg 89%
    12:00 -2°C° 0 mm 1 mps 611 mmHg 90%
    13:00 -1°C° 0 mm 1 mps 611 mmHg 91%
    14:00 -1°C° 0 mm 1 mps 610 mmHg 90%
    15:00 -1°C° 0 mm 1 mps 610 mmHg 90%
    16:00 -2°C° 0 mm 0 mps 609 mmHg 90%
    17:00 -3°C° 0 mm 1 mps 608 mmHg 90%
    18:00 -4°C° 0 mm 1 mps 607 mmHg 90%
    19:00 -7°C° 0 mm 1 mps 606 mmHg 90%
    20:00 -7°C° 0 mm 1 mps 606 mmHg 89%
    21:00 -8°C° 0 mm 2 mps 606 mmHg 88%
    22:00 -9°C° 0 mm 2 mps 605 mmHg 87%
    23:00 -9°C° 0 mm 2 mps 605 mmHg 87%
    Show more